Location: B?jaj?g
(11.7167°N, 92.6667°E)
Time: 12:40:28
(UTC+00:00)

ADEOS - Pass Details

Date: 18 September 2020
Orbit: 792 x 794 km, 98.9° (Epoch: 25 October)

Event Time Altitude Azimuth Distance (km) Brightness Sun altitude
Rises 22:27:29 0° 359° (N) 3,280 6.8 -18.2°
Reaches altitude 10° 22:29:56 10° 352° (N) 2,351 6.0 -17.6°
Maximum altitude 22:34:42 38° 285° (WNW) 1,186 4.0 -16.4°
Enters shadow 22:39:29 10° 217° (SW) 2,351 5.6 -15.3°
